Location: Roland
(31.1349°N, 85.4372°W)
Time: 04:20:27
(UTC+00:00)

Vanguard 2 Rocket - Pass Details

Date: 06 December 2021
Orbit: 554 x 3324 km, 32.9° (Epoch: 16 January)

Event Time Altitude Azimuth Distance (km) Brightness Sun altitude
Exits shadow 08:14:57 11° 197° (SSW) 6,214 10.9 -53.0°
Drops below altitude 10° 08:15:38 10° 195° (SSW) 6,270 11.0 -52.9°
Sets 08:24:57 0° 174° (S) 7,223 11.5 -50.9°
